Printer-friendly version

IAU Minor Planet Center

Minor Planet Center

MPEC 2006-R36 : 2006 RG1

The following Minor Planet Electronic Circular may be linked-to from your own Web pages, but must not otherwise be redistributed electronically.


Read MPEC 2006-R35 Read MPEC 2006-R37


M.P.E.C. 2006-R36                                Issued 2006 Sept.  9, 00:16 UT

     The Minor Planet Electronic Circulars contain information on unusual
         minor planets and routine data on comets.  They are published
   on behalf of Commission 20 of the International Astronomical Union by the
          Minor Planet Center, Smithsonian Astrophysical Observatory,
                          Cambridge, MA 02138, U.S.A.

                  Supported in part by the Brinson Foundation
                  Supported in part by the TABASGO Foundation
             Prepared using the Tamkin Foundation Computer Network

                              MPC@CFA.HARVARD.EDU
          URL http://cfa-www.harvard.edu/iau/mpc.html  ISSN 1523-6714

                                   2006 RG1

Observations:
     K06R01G* C2006 09 01.70088 02 06 19.22 -50 41 34.5          19.0 V ER036E12
     K06R01G  C2006 09 01.71946 02 06 13.57 -50 42 21.1          19.1 V ER036E12
     K06R01G  C2006 09 01.72866 02 06 10.76 -50 42 44.6          19.5 V ER036E12
     K06R01G  C2006 09 01.76905 02 05 58.41 -50 44 26.6          19.2 V ER036E12
     K06R01G  C2006 09 01.77729 02 05 55.89 -50 44 47.8          19.2 V ER036E12
     K06R01G  C2006 09 01.78559 02 05 53.34 -50 45 08.2          19.6 V ER036E12
     K06R01G  C2006 09 01.79381 02 05 50.85 -50 45 28.6          19.5 V ER036E12
     K06R01G  C2006 09 01.80350 02 05 47.91 -50 45 53.4          19.4 R ER036E12
     K06R01G  C2006 09 01.80645 02 05 46.96 -50 46 00.7          19.9 R ER036E12
     K06R01G  C2006 09 02.56025 02 01 54.22 -51 17 34.3          19.2 R ER036E12
     K06R01G  C2006 09 02.56478 02 01 52.83 -51 17 45.5          19.3 R ER036E12
     K06R01G  C2006 09 03.63425 01 56 04.60 -52 02 03.0          19.0 R ER036E12
     K06R01G  C2006 09 03.63957 01 56 02.83 -52 02 16.9          19.3 R ER036E12
     K06R01G  C2006 09 05.64897 01 44 13.52 -53 23 10.6          18.8 R ER036E12
     K06R01G  C2006 09 05.65157 01 44 12.52 -53 23 17.1          19.0 R ER036E12
     K06R01G  C2006 09 05.80138 01 43 16.09 -53 29 09.6                 ER036E12

Observer details:
E12 Siding Spring Survey.  Observers R. H. McNaught, D. M. Burton.  Measurers
    R. H. McNaught, E. C. Beshore, E. J. Christensen, G. J. Garradd,
    A. R. Gibbs, A. D. Grauer, R. E. Hill, R. A. Kowalski, S. M. Larson.
    0.5-m Uppsala Schmidt + CCD.

Orbital elements:
2006 RG1
Epoch 2006 Sept. 22.0 TT = JDT 2454000.5                MPC
M 358.61477              (2000.0)            P               Q
n   0.02044343     Peri.  345.86824     +0.70682244     -0.39195651
a  13.2464694      Node   306.13818     -0.55731339     -0.82124295
e   0.8490386      Incl.  133.18335     -0.43566481     +0.41464455
P  48.21           H   15.7           G   0.15           U   6
Residuals in seconds of arc
060901 E12  0.4-  0.3-    060901 E12  0.2-  0.0     060903 E12  0.3-  0.3-
060901 E12  0.3-  0.1+    060901 E12  0.1+  0.4-    060905 E12  0.2+  0.0
060901 E12  0.3-  0.1-    060901 E12  0.4-  0.3-    060905 E12  0.1-  0.3-
060901 E12  0.3-  0.3-    060902 E12  0.3-  0.4-    060905 E12  0.5-  0.5-
060901 E12  0.3-  0.7-    060902 E12  0.1+  0.1-
060901 E12  0.4-  0.2-    060903 E12  0.5-  0.4+

Ephemeris:
2006 RG1                 a,e,i = 13.25, 0.85, 133                q = 1.9997
Date    TT    R. A. (2000) Decl.     Delta      r     Elong.  Phase     V
2006 09 02    02 04.81   -50 54.1    1.534    2.224   120.5    23.0    19.5
2006 09 12    00 58.49   -57 04.1    1.452    2.178   123.8    22.6    19.3
2006 09 22    23 26.00   -59 34.2    1.443    2.137   120.6    23.8    19.3
2006 10 02    21 58.15   -57 06.0    1.509    2.101   112.1    26.2    19.4
2006 10 12    20 59.32   -51 44.6    1.635    2.070   100.8    28.3    19.6
2006 10 22    20 25.38   -45 52.3    1.802    2.044    89.0    29.1    19.8
2006 11 01    20 06.61   -40 31.3    1.991    2.024    77.5    28.6    20.0
2006 11 11    19 56.61   -35 54.9    2.186    2.010    66.6    26.9    20.1

Timothy B. Spahr             (C) Copyright 2006 MPC           M.P.E.C. 2006-R36

Read MPEC 2006-R35 Read MPEC 2006-R37


Our Web policy. Index to the CBAT/MPC/ICQ pages.


Valid HTML 4.01!